Showing default

HODOYOSHI 3, 40015

Orbit data source: Space-Track

HODOYOSHI 3, 40015 is a payload satellite owned by Tokyo (JP) in SSO that was launched on Thu, 19 Jun 2014 UTC via a DNEPR launch vehicle from the Orenburg, Russia (OREN). Payload-class satellites include a variety of spacecraft equipped with specific instruments for various scientific and technological missions. These include communications satellites like Starlink; space stations such as the ISS; scientific satellites like the Hubble; Earth observation satellites from companies like Planet Labs, Umbra, and HawkEye 360; GPS; miniature CubeSats for education and research; and military/defense satellites.

Loading next visibility...
Identifier
40015, 2014-033F
Orbit
SSO
Country
Flag of JPJP / JPN
Related business
Manufacturer
AXELSPACE
Mission
Operational Amateur Imaging
Bus & Motor
HODOYOSHI, Unknown motor
Mass
58 kg wet, 58 kg dry
Launch date (UTC)
2014-06-19 (12 years ago)
Launch vehicle
DNEPR
Launch site
Orenburg, Russia (OREN)
Object type
Payload
Rocket body
Debris
Shape & HBR
Box + 2 Pan, 0.8 m
Radar Cross Section
0.614 m², Medium (>0.1 m² and < 1m²)

Expand to show TLE details & history
Last TLE update: 1 day ago

TLE from 1 day ago
0 HODOYOSHI 3
1 40015U 14033F   26253.39593134  .00000799  00000-0  97543-4 0  9993
2 40015  97.6521  53.0680 0034182  74.6558 285.8431 14.85550007660274
Epoch: 2026-09-10T09:30Z
TLE epoch observation values (Epoch: 2026-09-10T09:30:08.467Z)
Latitude
-0.00003°
Longitude
-78.90152°
Altitude
608.448 km
Speed
7.559 km/s
True Right ascension
03h 32m 16s
True Declination
0° 00' 00"
Sunlit
Object was in full shadow at epoch
Visualization orbit readout
Latitude
Unknown
Longitude
Unknown
Altitude
Unknown
Speed
Unknown
Apparent Right ascension
Unknown
Apparent Declination
Unknown
Sunlit
N/A
Visualization observer readout
Local Sidereal Time
04:28:48
Azimuth
Unknown
Elevation
Unknown
Doppler factor
Unknown
Orbital elements
Apogee altitude
632.765 km
Perigee altitude
584.999 km
Semi-major axis
6,987.019 km
Eccentricity
0.00342
Inclination
97.6521°
RAAN
53.068°
Arg. of periapsis
74.6558°
True anomaly
285.46585°
Mean anomaly
285.8431°
Eccentric anomaly
285.65452°
Mean motion
3.71625 °/min
Orbital period
96.87 mins
BSTAR
0.000097543
Loading maneuver chart data...
Computing Atmospheric mass density...
Loading historical data...
Loading historical data...
Loading historical data...
Loading historical data...
Loading historical data...
Loading historical data...
Loading historical data...

Documentation

Showing up to 5 results
|